Regional Weather Roundup
Issued by NWS

Home | Current Version | Previous Version | Graphics & Text | Print | Product List | Glossary On
Versions: 1 2 3 4 5 6 7 8 9 10 11 12 13 14 15 16 17 18 19 20 21 22 23 24 25 26 27 28 29 30 31 32 33 34 35 36 37 38 39 40 41 42 43 44 45 46 47 48 49 50
000
ASUS43 KLSX 191907
RWRMO

WEATHER SUMMARY FOR MISSOURI
NATIONAL WEATHER SERVICE SPRINGFIELD MO
200 PM CDT TUE SEP 19 2017

NOTE: "FAIR" INDICATES FEW OR NO CLOUDS BELOW 12,000 FEET WITH NO
       SIGNIFICANT WEATHER AND/OR OBSTRUCTIONS TO VISIBILITY.
       CURRENT SKY AND/OR WEATHER CONDITIONS ARE NOT AVAILABLE FOR
       CHILLICOTHE AND FARMINGTON.

MOZ001>031-035>038-043-044-053-054-192000-
...NORTHERN AND WESTERN MISSOURI...

CITY           SKY/WX    TMP DP  RH WIND       PRES   REMARKS
KANSAS CTY INT MOSUNNY   85  70  60 S17G24    29.80F
KANSAS C DTWN  SUNNY     87  71  58 SE14      29.79F HX  93
LEE`S SUMMIT   SUNNY     86  71  60 S17G24    29.83F HX  91
ST JOSEPH      SUNNY     87  70  56 SE20G26   29.78F HX  92
CHILLICOTHE      N/A     84  70  62 S10G17    29.84F
KIRKSVILLE     MOSUNNY   80  69  69 SE10G17   29.90F

$$
MOZ066>068-077>081-088>096-101>105-192000-
...SOUTHWEST MISSOURI...

CITY           SKY/WX    TMP DP  RH WIND       PRES   REMARKS
SPRINGFIELD    SUNNY     87  68  52 S17G24    29.90F HX  90
JOPLIN         SUNNY     89  71  55 S16       29.86F HX  95
BRANSON        PTSUNNY   88  64  45 S8        29.93F

$$
MOZ032>034-039>042-045>050-055>058-069>072-192000-
...CENTRAL MISSOURI...

CITY           SKY/WX    TMP DP  RH WIND       PRES   REMARKS
COLUMBIA       SUNNY     84  70  62 S8        29.90F
JEFFERSON CITY SUNNY     83  69  62 S8        29.89F
ROLLA          SUNNY     87  66  49 S8        29.93F
SEDALIA        SUNNY     86  70  58 S9        29.88F HX  90
WHITEMAN AFB   MOSUNNY   85  72  63 S13       29.85F HX  91
WARRENSBURG    MOSUNNY   84  68  58 S13G18    29.85F
OSAGE BEACH    SUNNY     86  68  54 SE7       29.90F

$$
MOZ051-052-059>065-192000-
...EAST CENTRAL MISSOURI...

CITY           SKY/WX    TMP DP  RH WIND       PRES   REMARKS
ST LOUIS INTL  MOSUNNY   86  68  54 S7        29.91F
SPIRIT OF STL  MOSUNNY   85  72  65 N6        29.90F HX  91
ST CHARLES     PTSUNNY   87  68  52 MISG      29.90F HX  90

$$
MOZ072>076-082>087-097>100-106>115-192000-
...SOUTH CENTRAL AND SOUTHEAST MISSOURI...

CITY           SKY/WX    TMP DP  RH WIND       PRES   REMARKS
CAPE GIRARDEAU MOSUNNY   87  69  54 NE3       29.90F HX  91
FARMINGTON     MOSUNNY   86  67  52 SW6       29.94F HAZE
POPLAR BLUFF   SUNNY     90  68  48 VRB6      29.90F HX  94
WEST PLAINS    SUNNY     87  65  47 S6        29.95F

$$



USA.gov is the U.S. government's official web portal to all federal, state and local government web resources and services.